This is the latest recevied weather packets stored in our database for station/object KC1TWD. If no packets are shown the sender has not sent any weather packets the latest 10 day(s).
| Time | Temp. | Humidity | Pressure | Rain* | Wind** | Luminosity | Snow |
|---|---|---|---|---|---|---|---|
| 1778081644 | 20° C | 71% | 1007.6 hPa | 0 mm | - | - | - |
| 1778081341 | 20° C | 70% | 1007.9 hPa | 0 mm | - | - | - |
| 1778081038 | 20° C | 70% | 1007.9 hPa | 0 mm | - | - | - |
| 1778080737 | 20° C | 70% | 1008 hPa | 0 mm | - | - | - |
| 1778080433 | 20° C | 70% | 1007.9 hPa | 0 mm | - | - | - |
| 1778080131 | 20° C | 70% | 1008 hPa | 0 mm | - | - | - |
| 1778079827 | 20° C | 74% | 1008 hPa | 0 mm | - | - | - |
| 1778079524 | 20° C | 70% | 1007.9 hPa | 0 mm | - | - | - |
| 1778079220 | 19.44° C | 72% | 1007.7 hPa | 0 mm | - | - | - |
| 1778078918 | 19.44° C | 72% | 1007.8 hPa | 0 mm | - | - | - |
| 1778078614 | 19.44° C | 71% | 1007.6 hPa | 0 mm | - | - | - |
| 1778078313 | 19.44° C | 71% | 1007.9 hPa | 0 mm | - | - | - |
| 1778078009 | 19.44° C | 72% | 1008.1 hPa | 0 mm | - | - | - |
| 1778077708 | 19.44° C | 71% | 1008 hPa | 0 mm | - | - | - |
| 1778077405 | 19.44° C | 71% | 1007.8 hPa | 0 mm | - | - | - |
| 1778077103 | 19.44° C | 72% | 1007.8 hPa | 0 mm | - | - | - |
| 1778076801 | 19.44° C | 71% | 1007.7 hPa | 0 mm | - | - | - |
| 1778076499 | 19.44° C | 73% | 1007.7 hPa | 0 mm | - | - | - |
| 1778076195 | 19.44° C | 73% | 1007.7 hPa | 0 mm | - | - | - |
| 1778075893 | 19.44° C | 73% | 1007.6 hPa | 0 mm | - | - | - |
| 1778075589 | 18.89° C | 75% | 1007.5 hPa | 0 mm | - | - | - |
| 1778075286 | 18.89° C | 74% | 1007.5 hPa | 0 mm | - | - | - |
| 1778074982 | 18.33° C | 76% | 1007.8 hPa | 0 mm | - | - | - |
| 1778074679 | 18.33° C | 76% | 1007.6 hPa | 0 mm | - | - | - |
| 1778074376 | 17.78° C | 78% | 1007.9 hPa | 0 mm | - | - | - |
* Rain latest hour (hover to see other rain measurements)
** Current wind speed in m/s (hover to see current wind gust speed)